| time (UTC) | temp C | wind direction | speed KPH | gust KPH | rain 1hr cm | rain 24hr cm | rain mn cm | humidity % | barometer mb |
| 20260507093015 | 6 | 262 | 11.3 | 17.7 | 7.01 | 23.55 | 16.43 | 69 | 954.1 |
| 20260507092015 | 6 | 296 | 4.8 | 12.9 | 7.01 | 23.55 | 16.43 | 69 | 954.1 |
| 20260507091035 | 6 | 274 | 11.3 | 20.9 | 7.01 | 23.55 | 16.43 | 69 | 954.1 |
| 20260507090014 | 6 | 290 | 8.0 | 19.3 | 0.51 | 17.04 | 9.93 | 69 | 954.1 |
| 20260507085015 | 6 | 324 | 4.8 | 14.5 | 0.51 | 17.04 | 9.93 | 68 | 953.9 |
| 20260507084015 | 6 | 265 | 6.4 | 17.7 | 0.51 | 16.54 | 9.42 | 71 | 953.9 |
| 20260507083015 | 6 | 341 | 4.8 | 9.7 | 0.51 | 16.54 | 9.42 | 71 | 953.9 |
| 20260507082015 | 6 | 262 | 6.4 | 14.5 | 0.51 | 16.54 | 9.42 | 69 | 953.9 |
| 20260507081015 | 6 | 258 | 8.0 | 16.1 | 0.51 | 16.54 | 9.42 | 68 | 953.8 |
| 20260507080035 | 6 | 271 | 12.9 | 20.9 | 0.51 | 16.54 | 9.42 | 68 | 953.7 |
| 20260507075015 | 6 | 256 | 16.1 | 25.7 | 0.51 | 16.54 | 9.42 | 67 | 953.6 |
| 20260507074015 | 6 | 268 | 14.5 | 32.2 | 0.00 | 16.03 | 8.94 | 66 | 953.5 |
| 20260507073016 | 6 | 259 | 11.3 | 19.3 | 0.00 | 16.03 | 8.94 | 65 | 953.5 |
| 20260507072015 | 6 | 244 | 8.0 | 19.3 | 0.00 | 16.03 | 8.94 | 64 | 953.4 |
| 20260507071015 | 6 | 246 | 6.4 | 14.5 | 0.00 | 16.03 | 8.94 | 65 | 953.8 |
| 20260507070015 | 6 | 235 | 12.9 | 22.5 | 0.00 | 16.03 | 8.94 | 66 | 953.5 |
| 20260507065015 | 6 | 219 | 11.3 | 25.7 | 6.50 | 16.03 | 8.94 | 66 | 953.4 |
| 20260507064016 | 6 | 241 | 16.1 | 29.0 | 6.50 | 16.03 | 8.94 | 66 | 953.4 |
| 20260507063015 | 6 | 247 | 16.1 | 22.5 | 6.50 | 16.03 | 8.94 | 65 | 953.4 |
| 20260507062015 | 6 | 232 | 12.9 | 20.9 | 6.50 | 16.03 | 8.94 | 64 | 953.4 |
| 20260507061016 | 6 | 234 | 14.5 | 24.1 | 6.50 | 16.03 | 8.94 | 63 | 953.4 |
| 20260507060015 | 5 | 228 | 16.1 | 27.4 | 6.50 | 16.03 | 8.94 | 62 | 953.2 |
| 20260507055016 | 5 | 220 | 14.5 | 25.7 | 0.00 | 9.53 | 2.44 | 62 | 953.5 |
| 20260507054015 | 5 | 236 | 16.1 | 25.7 | 0.00 | 9.53 | 2.44 | 63 | 953.3 |
| 20260507053015 | 5 | 222 | 12.9 | 19.3 | 0.00 | 9.53 | 2.44 | 63 | 953.5 |
| 20260507052014 | 5 | 218 | 12.9 | 19.3 | 0.00 | 9.53 | 2.44 | 62 | 953.1 |
| 20260507051015 | 5 | 224 | 12.9 | 22.5 | 0.00 | 9.53 | 2.44 | 62 | 953.0 |
| 20260507050016 | 5 | 224 | 12.9 | 22.5 | 0.00 | 9.53 | 2.44 | 61 | 953.0 |
| 20260507045016 | 5 | 213 | 11.3 | 17.7 | 0.00 | 9.53 | 2.44 | 58 | 952.9 |
| 20260507044015 | 6 | 217 | 12.9 | 17.7 | 0.61 | 9.53 | 2.44 | 57 | 952.8 |
| 20260507043015 | 6 | 193 | 9.7 | 12.9 | 0.61 | 9.53 | 2.44 | 56 | 952.7 |
| 20260507042015 | 5 | 169 | 8.0 | 11.3 | 1.19 | 9.53 | 2.44 | 57 | 952.7 |
| 20260507041015 | 5 | 193 | 6.4 | 9.7 | 1.19 | 9.53 | 2.44 | 57 | 952.7 |
| 20260507040016 | 5 | 198 | 8.0 | 9.7 | 1.19 | 9.53 | 2.44 | 59 | 952.7 |
| 20260507035015 | 5 | 207 | 8.0 | 9.7 | 1.19 | 9.53 | 2.44 | 60 | 952.6 |
| 20260507034015 | 5 | 228 | 9.7 | 14.5 | 0.61 | 8.94 | 1.83 | 62 | 952.6 |
| 20260507033035 | 5 | 233 | 11.3 | 16.1 | 0.61 | 8.94 | 1.83 | 62 | 952.5 |
| 20260507032015 | 5 | 205 | 9.7 | 14.5 | 0.00 | 8.33 | 1.24 | 61 | 952.4 |
| 20260507031015 | 5 | 200 | 9.7 | 14.5 | 0.00 | 8.33 | 1.24 | 63 | 952.3 |
| 20260507030015 | 5 | 210 | 9.7 | 12.9 | 0.00 | 8.33 | 1.24 | 61 | 952.4 |
| 20260507025016 | 5 | 222 | 9.7 | 14.5 | 0.00 | 8.33 | 1.24 | 63 | 952.4 |
| 20260507024015 | 5 | 235 | 9.7 | 14.5 | 0.00 | 8.33 | 1.24 | 62 | 952.3 |
| 20260507023016 | 5 | 231 | 6.4 | 12.9 | 0.00 | 8.33 | 1.24 | 62 | 952.3 |
| 20260507022015 | 5 | 240 | 8.0 | 17.7 | 0.00 | 8.33 | 1.24 | 62 | 952.3 |
| 20260507021015 | 5 | 225 | 9.7 | 12.9 | 0.61 | 8.33 | 1.24 | 62 | 952.4 |
| 20260507020015 | 5 | 224 | 11.3 | 17.7 | 0.61 | 8.33 | 1.24 | 64 | 952.3 |
| 20260507015035 | 5 | 225 | 14.5 | 20.9 | 0.61 | 8.33 | 1.24 | 63 | 952.3 |
| 20260507014016 | 5 | 228 | 12.9 | 20.9 | 0.61 | 8.33 | 1.24 | 63 | 952.3 |
| 20260507013015 | 5 | 219 | 14.5 | 19.3 | 0.61 | 8.33 | 1.24 | 62 | 952.4 |
| 20260507012016 | 5 | 221 | 12.9 | 16.1 | 0.61 | 8.33 | 1.24 | 61 | 952.4 |
| 20260507011015 | 5 | 226 | 14.5 | 20.9 | 0.00 | 7.75 | 0.64 | 61 | 952.3 |
| 20260507010036 | 5 | 230 | 12.9 | 19.3 | 0.03 | 7.75 | 0.64 | 61 | 952.2 |
| 20260507005015 | 5 | 232 | 14.5 | 20.9 | 0.03 | 7.75 | 0.64 | 61 | 952.3 |
| 20260507004035 | 5 | 219 | 14.5 | 20.9 | 0.03 | 7.75 | 0.64 | 61 | 952.2 |
| 20260507003014 | 5 | 230 | 14.5 | 20.9 | 0.64 | 7.75 | 0.64 | 62 | 952.2 |
| 20260507002035 | 5 | 230 | 16.1 | 24.1 | 0.64 | 7.75 | 0.64 | 61 | 952.2 |
| 20260507001036 | 5 | 241 | 19.3 | 30.6 | 0.64 | 7.75 | 0.64 | 62 | 952.2 |
| 20260507000015 | 5 | 244 | 20.9 | 29.0 | 0.61 | 7.70 | 0.61 | 62 | 952.1 |
| 20260506235016 | 5 | 248 | 22.5 | 29.0 | 0.61 | 7.70 | 0.61 | 60 | 952.2 |
| 20260506234015 | 5 | 247 | 24.1 | 30.6 | 0.61 | 7.70 | 0.61 | 59 | 952.2 |
| 20260506233015 | 5 | 253 | 25.7 | 30.6 | 0.00 | 7.11 | 0.00 | 57 | 952.1 |
| 20260506232015 | 5 | 257 | 20.9 | 27.4 | 0.00 | 7.11 | 0.00 | 55 | 952.2 |
| 20260506231015 | 5 | 254 | 20.9 | 25.7 | 0.00 | 7.11 | 0.00 | 55 | 952.2 |
| 20260506230016 | 5 | 250 | 24.1 | 29.0 | 0.00 | 7.11 | 0.00 | 55 | 952.1 |
| 20260506225015 | 5 | 251 | 19.3 | 25.7 | 0.00 | 7.11 | 0.00 | 54 | 952.2 |
| 20260506224016 | 5 | 239 | 24.1 | 32.2 | 0.00 | 7.11 | 0.00 | 56 | 952.1 |
| 20260506223015 | 5 | 244 | 20.9 | 29.0 | 0.00 | 7.11 | 0.00 | 57 | 952.2 |
| 20260506222015 | 5 | 239 | 16.1 | 24.1 | 0.00 | 7.11 | 0.00 | 56 | 952.3 |
| 20260506221036 | 5 | 231 | 11.3 | 16.1 | 0.00 | 7.11 | 0.00 | 55 | 952.4 |
| 20260506220015 | 5 | 203 | 9.7 | 14.5 | 0.00 | 7.11 | 0.00 | 57 | 952.5 |
| 20260506215015 | 5 | 203 | 11.3 | 16.1 | 0.00 | 7.11 | 0.00 | 59 | 952.5 |
| 20260506214015 | 5 | 244 | 19.3 | 27.4 | 0.00 | 7.11 | 0.00 | 57 | 952.5 |
| 20260506213016 | 5 | 233 | 16.1 | 25.7 | 0.00 | 7.59 | 0.00 | 58 | 952.6 |
| 20260506212015 | 5 | 241 | 19.3 | 27.4 | 0.00 | 7.59 | 0.00 | 60 | 952.6 |
| 20260506211015 | 5 | 226 | 11.3 | 17.7 | 0.00 | 7.59 | 0.00 | 60 | 952.6 |
| 20260506210015 | 5 | 234 | 16.1 | 24.1 | 0.00 | 7.59 | 0.00 | 61 | 952.6 |
| 20260506205015 | 5 | 226 | 17.7 | 27.4 | 0.00 | 7.62 | 7.59 | 61 | 952.5 |
| 20260506204037 | 5 | 225 | 17.7 | 27.4 | 0.00 | 7.62 | 7.59 | 61 | 952.6 |
| 20260506203015 | 5 | 224 | 16.1 | 22.5 | 0.00 | 7.62 | 7.59 | 62 | 952.7 |
| 20260506202515 | 5 | 212 | 16.1 | 20.9 | 0.00 | 7.62 | 7.59 | 61 | 952.6 |
| 20260506201515 | 5 | 208 | 16.1 | 19.3 | 0.00 | 7.62 | 7.59 | 61 | 952.6 |
| 20260506200535 | 5 | 221 | 16.1 | 24.1 | 0.00 | 7.62 | 7.59 | 63 | 952.6 |
| 20260506195515 | 5 | 226 | 16.1 | 25.7 | 0.00 | 7.62 | 7.59 | 64 | 952.6 |
| 20260506194515 | 5 | 241 | 16.1 | 24.1 | 0.00 | 7.62 | 7.59 | 63 | 952.5 |
| 20260506193535 | 5 | 253 | 16.1 | 20.9 | 0.00 | 7.62 | 7.59 | 62 | 952.5 |
| 20260506192515 | 5 | 246 | 14.5 | 20.9 | 0.00 | 7.62 | 7.59 | 62 | 952.5 |
| 20260506191515 | 5 | 232 | 14.5 | 24.1 | 0.00 | 7.62 | 7.59 | 63 | 952.5 |
| 20260506190515 | 5 | 232 | 16.1 | 24.1 | 0.00 | 7.62 | 7.59 | 63 | 952.4 |
| 20260506185515 | 5 | 224 | 14.5 | 22.5 | 0.00 | 7.62 | 7.59 | 64 | 952.3 |
| 20260506184516 | 5 | 224 | 16.1 | 24.1 | 0.00 | 7.62 | 7.59 | 65 | 952.3 |
| 20260506183515 | 5 | 225 | 14.5 | 22.5 | 0.00 | 7.62 | 7.59 | 65 | 952.2 |
| 20260506182515 | 5 | 224 | 17.7 | 30.6 | 0.00 | 7.62 | 7.59 | 65 | 952.0 |
| 20260506181515 | 5 | 219 | 17.7 | 24.1 | 0.00 | 7.62 | 7.59 | 64 | 951.9 |
| 20260506180515 | 5 | 207 | 19.3 | 27.4 | 0.00 | 7.62 | 7.59 | 64 | 951.8 |
| 20260506175515 | 5 | 200 | 16.1 | 19.3 | 0.00 | 7.62 | 7.59 | 63 | 951.9 |
| 20260506174535 | 6 | 216 | 12.9 | 20.9 | 0.00 | 7.62 | 7.59 | 59 | 951.8 |
| 20260506173556 | 6 | 243 | 11.3 | 17.7 | 0.00 | 7.62 | 7.59 | 59 | 951.9 |
| 20260506172515 | 6 | 260 | 11.3 | 19.3 | 0.00 | 7.62 | 7.59 | 59 | 951.8 |
| 20260506171515 | 6 | 260 | 17.7 | 25.7 | 0.00 | 7.62 | 7.59 | 59 | 951.7 |
| 20260506170516 | 6 | 237 | 9.7 | 22.5 | 0.00 | 7.62 | 7.59 | 58 | 951.8 |
| 20260506165515 | 6 | 282 | 16.1 | 22.5 | 0.00 | 7.62 | 7.59 | 58 | 951.8 |
| 20260506164515 | 6 | 291 | 8.0 | 14.5 | 0.00 | 7.62 | 7.59 | 57 | 951.9 |
| 20260506163515 | 6 | 295 | 6.4 | 9.7 | 0.00 | 7.62 | 7.59 | 57 | 951.9 |
| 20260506162516 | 6 | 253 | 3.2 | 8.0 | 0.00 | 7.62 | 7.59 | 58 | 951.9 |
| 20260506161515 | 6 | 313 | 4.8 | 8.0 | 0.00 | 7.62 | 7.59 | 59 | 951.9 |
| 20260506160516 | 6 | 294 | 9.7 | 14.5 | 0.00 | 7.62 | 7.59 | 56 | 952.0 |
| 20260506155516 | 6 | 284 | 9.7 | 19.3 | 0.00 | 7.62 | 7.59 | 56 | 952.1 |
| 20260506154515 | 6 | 280 | 6.4 | 9.7 | 0.00 | 7.62 | 7.59 | 55 | 952.1 |
| 20260506153515 | 6 | 317 | 6.4 | 9.7 | 0.00 | 7.62 | 7.59 | 57 | 952.1 |
| 20260506152535 | 7 | 309 | 4.8 | 8.0 | 0.00 | 7.62 | 7.59 | 56 | 952.1 |
| 20260506151515 | 7 | 291 | 6.4 | 9.7 | 0.00 | 7.62 | 7.59 | 54 | 952.1 |
| 20260506150515 | 7 | 308 | 3.2 | 6.4 | 0.00 | 7.62 | 7.59 | 55 | 952.2 |
| 20260506145515 | 6 | 276 | 4.8 | 9.7 | 0.00 | 7.62 | 7.59 | 55 | 952.1 |
| 20260506144516 | 6 | 309 | 8.0 | 9.7 | 0.00 | 7.62 | 7.59 | 55 | 952.1 |
| 20260506143515 | 6 | 315 | 8.0 | 12.9 | 6.50 | 7.62 | 7.59 | 54 | 952.2 |
| 20260506142536 | 6 | 328 | 11.3 | 16.1 | 6.50 | 7.62 | 7.59 | 56 | 952.2 |
| 20260506141515 | 6 | 326 | 11.3 | 14.5 | 6.50 | 7.62 | 7.59 | 57 | 952.2 |
| 20260506140515 | 6 | 323 | 11.3 | 16.1 | 6.50 | 7.62 | 7.59 | 57 | 952.2 |
| 20260506135515 | 6 | 325 | 3.2 | 6.4 | 6.50 | 7.62 | 7.59 | 59 | 952.2 |
| 20260506134515 | 6 | 335 | 4.8 | 6.4 | 6.50 | 7.62 | 7.59 | 59 | 952.2 |
| 20260506133515 | 6 | 344 | 3.2 | 6.4 | 0.00 | 1.12 | 1.12 | 58 | 952.3 |
| 20260506132515 | 7 | 1 | 1.6 | 3.2 | 0.00 | 1.12 | 1.12 | 56 | 952.3 |
| 20260506131535 | 7 | 53 | 1.6 | 3.2 | 0.00 | 1.12 | 1.12 | 57 | 952.3 |
| 20260506130515 | 7 | 43 | 3.2 | 8.0 | 0.00 | 1.12 | 1.12 | 57 | 952.3 |
| 20260506125515 | 7 | 54 | 6.4 | 9.7 | 0.00 | 1.12 | 1.12 | 57 | 952.3 |
| 20260506124536 | 6 | 340 | 3.2 | 6.4 | 0.00 | 1.12 | 1.12 | 58 | 952.4 |
| 20260506123515 | 6 | 11 | 8.0 | 14.5 | 0.00 | 1.12 | 1.12 | 61 | 952.5 |
| 20260506122515 | 6 | 342 | 9.7 | 16.1 | 0.00 | 1.12 | 1.12 | 61 | 952.6 |
| 20260506121515 | 6 | 324 | 8.0 | 9.7 | 0.00 | 1.12 | 1.12 | 60 | 952.6 |
| 20260506120535 | 7 | 306 | 3.2 | 6.4 | 0.61 | 1.12 | 1.12 | 58 | 952.6 |
| 20260506115515 | 7 | 338 | 4.8 | 9.7 | 0.61 | 1.12 | 1.12 | 56 | 952.6 |
| 20260506114516 | 7 | 348 | 1.6 | 27.4 | 0.61 | 1.12 | 1.12 | 52 | 952.7 |
| 20260506113516 | 6 | 348 | 4.8 | 9.7 | 0.61 | 1.12 | 1.12 | 57 | 952.7 |
| 20260506112515 | 7 | 352 | 4.8 | 11.3 | 0.61 | 1.12 | 1.12 | 56 | 952.7 |
| 20260506111516 | 8 | 352 | 1.6 | 8.0 | 0.61 | 1.12 | 1.12 | 51 | 952.7 |
| 20260506110516 | 7 | 344 | 1.6 | 6.4 | 0.00 | 0.51 | 0.51 | 58 | 952.7 |
| 20260506105515 | 6 | 50 | 3.2 | 9.7 | 0.00 | 0.51 | 0.51 | 62 | 952.7 |
| 20260506104515 | 6 | 326 | 8.0 | 11.3 | 0.00 | 1.12 | 0.51 | 65 | 952.7 |
| 20260506103515 | 6 | 354 | 8.0 | 14.5 | 0.00 | 1.12 | 0.51 | 65 | 952.7 |
| 20260506102515 | 6 | 341 | 6.4 | 11.3 | 0.00 | 1.12 | 0.51 | 63 | 952.8 |
| 20260506101515 | 6 | 354 | 3.2 | 6.4 | 0.00 | 1.12 | 0.51 | 61 | 952.8 |
| 20260506100535 | 6 | 9 | 3.2 | 11.3 | 0.00 | 1.12 | 0.51 | 60 | 952.8 |
| 20260506095515 | 7 | 22 | 4.8 | 12.9 | 0.00 | 1.12 | 0.51 | 54 | 952.7 |
| 20260506094515 | 6 | 47 | 1.6 | 6.4 | 0.00 | 1.12 | 0.51 | 65 | 952.8 |